Location: Unspecified
(0.0000°N, 0.0000°E)
Time: 15:20:02
(UTC+00:00)

Transit 2A - All Passes

Search period start: 24 October 2014 00:00
Search period end: 03 November 2014 00:00
Orbit: 598 x 964 km, 66.7° (Epoch: 22 October)

Date Brightness Start Highest point End Pass type
(mag) Time Alt. Az. Time Alt. Az. Time Alt. Az.
24 Oct - 01:23:47 10° S 01:28:11 63° ESE 01:32:25 10° NNE night (unlit)
24 Oct - 12:15:38 10° NNE 12:19:24 17° ENE 12:23:14 10° ESE daylight
24 Oct - 13:56:32 10° NW 14:02:25 45° WSW 14:08:28 10° S daylight
25 Oct - 00:50:39 10° S 00:54:40 33° ESE 00:58:32 10° NE night (unlit)
25 Oct - 13:22:44 10° NNW 13:28:54 71° WSW 13:35:14 10° SSE daylight
26 Oct - 00:18:00 10° SSE 00:21:08 19° ESE 00:24:10 10° ENE night (unlit)
26 Oct - 02:01:16 10° WSW 02:04:00 16° WNW 02:06:42 10° NNW night (unlit)
26 Oct - 12:49:12 10° NNW 12:55:23 76° ENE 13:01:45 10° SSE daylight
26 Oct - 23:47:03 10° ESE 23:47:34 10° ESE 23:48:04 10° ESE night (unlit)
27 Oct - 01:26:42 10° SW 01:30:30 29° WNW 01:34:14 10° N night (unlit)
27 Oct - 12:15:56 10° N 12:21:52 49° ENE 12:27:58 10° SE daylight
27 Oct - 14:01:26 10° WNW 14:04:59 16° WSW 14:08:35 10° SW daylight
28 Oct - 00:52:43 10° SSW 00:57:01 54° WNW 01:01:12 10° N night (unlit)
28 Oct - 11:42:59 10° N 11:48:22 31° ENE 11:53:52 10° SE daylight
28 Oct - 13:26:28 10° WNW 13:31:26 25° WSW 13:36:28 10° SSW daylight
29 Oct - 00:19:07 10° SSW 00:23:31 79° ESE 00:27:48 10° NNE night (unlit)
29 Oct - 11:10:29 10° NNE 11:14:51 20° ENE 11:19:18 10° ESE daylight
29 Oct - 12:52:09 10° NW 12:57:53 38° WSW 13:03:43 10° S daylight
29 Oct - 23:45:51 10° S 23:50:01 41° ESE 23:54:04 10° NE night (unlit)
30 Oct - 10:39:01 10° NE 10:41:19 12° ENE 10:43:38 10° E daylight
30 Oct - 12:18:13 10° NNW 12:24:21 60° WSW 12:30:37 10° S daylight
30 Oct - 23:13:00 10° SSE 23:16:29 23° ESE 23:19:53 10° ENE night (unlit)
31 Oct - 00:57:20 10° W 00:59:21 13° WNW 01:01:22 10° NW night (unlit)
31 Oct - 11:44:35 10° NNW 11:50:50 88° ENE 11:57:13 10° SSE daylight
31 Oct - 22:40:58 10° SE 22:42:56 13° ESE 22:44:53 10° E night (unlit)
01 Nov - 00:22:22 10° SW 00:25:51 23° WNW 00:29:17 10° NNW night (unlit)
01 Nov - 11:11:13 10° N 11:17:19 58° ENE 11:23:32 10° SSE daylight
01 Nov - 12:57:44 10° W 13:00:26 13° WSW 13:03:10 10° SW daylight
01 Nov - 23:48:12 10° SW 23:52:21 43° WNW 23:56:25 10° N night (unlit)
02 Nov - 10:38:08 10° N 10:43:48 37° ENE 10:49:34 10° SE daylight
02 Nov - 12:22:18 10° WNW 12:26:52 21° WSW 12:31:29 10° SSW daylight
02 Nov - 23:14:28 10° SSW 23:18:51 82° WNW 23:23:08 10° NNE night (unlit)
